Temp_Advection
nan nan nan nan nan nan nan nan nan nan nan nan nan nan nan nan nan nan nan nan nan nan nan nan nan nan nan nan nan nan nan nan nan nan nan nan nan nan nan nan nan nan nan
nan -0 -0 0 0 0 0 -0 0 1 1 0 -0 0 1 2 1 1 2 3 2 -0 1 2 2 3 2 0 1 2 1 3 2 -0 1 1 0 -0 1 1 2 1 nan
nan -0 -0 -0 1 0 0 0 1 1 1 2 1 1 1 1 1 2 3 3 1 2 3 1 2 2 0 1 1 0 1 3 1 1 2 1 -0 0 2 1 1 1 nan
nan -1 -1 -0 0 -0 0 1 1 1 1 2 1 1 1 -0 2 3 2 2 1 2 1 1 1 1 1 1 0 1 2 3 1 2 1 0 1 1 1 -0 1 1 nan
nan -0 -1 -0 0 0 1 1 1 1 3 2 1 1 -0 1 3 1 1 1 1 1 1 1 1 1 1 1 1 2 2 1 1 1 0 0 0 -0 -0 0 1 1 nan
nan 0 0 -0 -0 1 2 1 1 3 3 1 1 -0 1 3 2 1 1 1 1 1 1 1 1 1 1 1 1 1 1 2 1 0 -0 -1 -1 -1 0 1 2 1 nan
nan -0 0 0 0 0 1 1 2 2 1 0 1 2 4 2 1 1 1 1 1 1 1 1 1 1 1 1 1 1 1 1 1 1 0 0 -0 1 1 1 0 -2 nan
nan 0 0 0 0 0 1 1 1 0 1 2 2 2 1 1 1 1 1 1 1 1 1 1 1 1 1 1 1 1 1 2 1 0 0 1 0 1 0 0 1 0 nan
nan 0 0 0 0 0 0 0 1 1 1 1 1 0 0 1 1 1 1 1 1 1 1 1 1 1 1 1 1 1 1 1 1 1 0 0 0 0 0 1 1 0 nan
nan 0 0 0 0 0 0 0 0 0 0 0 0 0 0 0 0 0 0 1 1 1 1 1 1 1 1 1 1 1 0 0 1 0 0 0 -0 0 1 1 -0 1 nan
nan 0 0 0 0 0 0 0 0 0 0 0 0 0 1 1 1 0 0 0 0 0 0 0 0 0 0 0 0 0 0 1 0 0 -0 -0 0 1 2 1 1 1 nan
nan -0 0 0 0 0 0 0 0 0 0 0 0 0 0 0 0 0 0 0 0 0 0 0 0 0 0 0 0 0 0 0 0 0 0 0 1 1 1 0 1 1 nan
nan 0 1 0 1 0 1 1 0 1 1 0 0 0 -0 0 0 0 0 0 0 0 0 0 0 0 0 0 0 0 0 0 0 0 0 1 1 1 1 0 1 0 nan
nan 0 1 0 0 0 0 1 1 1 1 0 0 0 0 0 0 1 1 1 0 0 1 1 1 1 1 0 0 0 0 0 0 0 1 1 1 1 0 1 0 1 nan
nan 0 0 0 0 -0 0 0 0 0 0 1 1 1 1 1 1 1 1 1 0 0 1 1 1 1 0 0 0 -0 0 0 0 0 1 1 1 1 0 1 1 1 nan
nan 0 0 0 0 0 0 0 0 0 0 0 0 0 1 0 0 0 0 0 0 0 0 0 1 1 0 0 0 0 0 0 1 1 1 1 1 0 0 1 1 1 nan
nan 0 0 0 0 0 0 -0 -0 -0 -0 -0 -0 -0 -0 -0 -0 -0 -0 -0 0 1 1 1 1 0 0 0 0 1 1 1 1 1 1 1 0 0 1 1 1 1 nan
nan 0 0 0 0 -0 -0 -0 -0 -0 -1 -0 -0 -0 -0 -0 -0 -0 -0 0 1 1 1 1 0 -0 0 0 0 0 0 1 1 1 0 0 0 0 1 1 1 0 nan
nan -0 -0 -0 0 -0 0 -0 0 0 -0 -0 -0 0 0 0 0 0 1 1 1 1 0 0 0 1 0 0 0 0 0 0 0 1 1 0 0 0 1 1 1 1 nan
nan 0 -0 -0 -0 -0 0 0 0 0 0 0 0 0 0 0 1 1 1 1 1 0 0 0 1 1 0 0 0 0 0 0 1 0 0 0 0 0 0 1 1 1 nan
nan 0 1 1 0 0 0 0 0 0 0 0 0 0 0 0 0 0 0 1 0 -0 0 -0 0 0 0 0 0 0 0 0 0 0 0 0 0 0 0 1 1 1 nan
nan -0 -0 0 1 0 0 0 0 0 0 0 0 0 0 -0 -0 0 0 -0 -0 -0 -0 -0 0 0 0 0 0 0 0 0 0 0 0 0 0 0 0 1 1 1 nan
nan 1 0 -0 -0 0 0 0 0 0 -0 -0 0 -0 -0 0 0 0 0 0 0 0 -0 0 0 0 0 0 0 0 0 -0 0 0 0 0 0 0 0 1 0 0 nan
nan 0 0 0 0 -0 0 0 0 0 0 0 -0 -0 0 0 -0 -0 0 0 0 0 0 0 0 0 0 0 0 0 0 0 0 0 0 0 0 0 0 0 -0 0 nan
nan 0 0 0 0 0 0 0 0 0 0 0 -0 -0 0 0 -0 -0 0 0 0 0 0 0 0 0 0 0 0 0 0 0 0 0 0 0 0 0 -0 -0 0 0 nan
nan nan nan nan nan nan nan nan nan nan nan nan nan nan nan nan nan nan nan nan nan nan nan nan nan nan nan nan nan nan nan nan nan nan nan nan nan nan nan nan nan nan nan
Wind_Speed
19 38 46 46 50 53 55 56 57 58 56 58 59 55 57 67 66 61 62 61 60 60 61 59 58 56 52 48 43 38 32 27 21 26 33 32 28 27 25 25 26 21 19
19 26 37 44 48 51 55 58 59 59 57 59 58 53 53 60 66 61 62 63 62 61 62 60 58 53 49 46 45 42 36 40 32 28 28 29 30 28 29 29 27 24 23
14 19 29 36 45 46 51 55 57 57 59 57 56 56 54 46 54 58 58 63 63 59 58 55 56 50 47 47 46 45 45 40 41 36 35 33 31 30 33 33 27 25 23
15 22 24 25 35 47 46 51 55 50 50 54 54 51 44 41 48 57 56 59 58 53 52 49 50 45 47 47 47 48 42 43 41 35 35 35 35 36 39 35 30 30 26
16 21 27 26 33 37 43 45 49 51 53 54 52 46 40 39 49 50 48 49 50 48 44 41 39 39 43 41 44 45 42 46 42 40 37 37 39 41 43 37 35 31 30
17 18 25 22 27 32 35 40 46 50 52 52 42 38 39 44 43 38 38 39 39 39 36 35 32 35 37 35 34 36 41 45 44 43 41 42 42 41 39 37 41 39 35
14 10 16 20 20 19 27 36 40 43 44 37 39 39 46 40 36 30 29 29 29 28 26 26 25 25 26 28 34 39 40 40 40 40 42 44 43 41 38 38 41 40 40
17 16 15 13 12 12 18 23 29 31 29 34 36 35 35 28 26 26 24 23 22 20 19 20 21 21 24 29 31 33 32 36 36 37 37 39 36 35 31 33 37 38 38
13 12 11 9 7 8 11 15 19 21 22 22 19 19 17 18 16 18 21 22 20 19 18 17 18 19 22 25 27 30 30 30 30 29 27 26 30 33 31 33 38 39 39
12 13 11 8 9 12 11 12 15 16 15 15 15 12 12 15 15 16 17 18 18 18 17 17 17 17 17 21 22 27 28 29 34 33 34 34 33 29 30 29 32 36 41
12 13 16 15 13 14 14 13 14 14 15 16 16 15 15 15 17 15 14 14 14 15 15 17 17 17 16 18 23 27 31 30 34 33 31 29 30 33 32 28 30 29 34
17 15 14 14 14 12 13 13 14 16 16 16 17 18 15 16 15 15 14 13 12 12 13 13 12 10 13 15 21 24 26 28 31 29 30 30 31 32 30 30 30 30 30
24 21 19 18 17 14 13 14 15 17 17 17 17 16 15 14 13 13 12 13 14 15 15 13 11 11 12 14 18 23 27 29 31 31 32 32 34 34 31 32 31 28 28
26 24 21 19 17 15 12 12 13 15 17 16 16 15 14 14 14 14 14 15 15 16 16 16 16 15 15 18 21 26 30 32 33 33 34 34 35 35 33 37 35 33 31
29 26 24 20 16 15 13 12 10 11 10 13 14 14 15 16 14 13 14 16 16 16 17 18 19 19 20 22 25 26 29 29 31 32 33 35 37 36 37 38 36 37 35
30 27 24 20 17 15 15 15 13 12 12 12 12 11 10 10 10 10 10 13 14 16 16 17 19 20 21 23 24 25 27 28 31 32 32 35 37 37 38 40 38 38 36
24 22 19 17 14 14 13 12 14 13 11 9 8 8 10 10 10 11 13 14 15 16 18 20 22 22 22 23 21 23 25 29 31 32 32 34 35 37 39 41 40 38 36
21 20 17 17 17 16 14 14 12 11 11 10 10 12 13 13 11 10 10 12 15 17 19 20 20 19 20 20 19 21 24 28 31 32 33 33 35 38 41 42 41 40 37
18 17 17 17 17 14 14 12 11 11 12 14 13 11 11 11 12 12 12 14 15 17 16 16 16 18 19 18 18 20 22 23 26 31 33 33 34 39 42 40 39 37 35
18 18 18 17 17 16 14 12 10 10 9 7 6 4 4 5 6 8 11 13 12 12 15 17 17 18 18 18 17 17 18 21 24 28 32 32 33 38 37 37 37 39 37
20 19 17 16 14 13 11 9 8 7 7 5 4 3 2 7 8 10 11 14 15 16 17 14 12 14 15 15 15 16 16 18 21 23 28 31 33 37 36 35 36 37 36
17 17 16 14 13 12 10 9 8 7 6 4 2 3 5 5 5 8 10 12 14 14 13 14 13 12 13 14 16 17 17 18 18 20 22 26 28 30 32 33 34 35 34
14 15 14 13 11 9 8 6 5 4 3 3 3 5 6 8 8 7 7 9 11 12 13 13 14 15 15 14 15 15 16 18 16 17 19 22 24 26 29 31 32 33 31
12 11 11 10 10 8 7 6 6 7 6 7 8 9 11 11 12 12 11 11 10 11 12 13 14 14 15 15 15 15 15 15 16 16 17 20 22 25 27 29 28 29 29
11 10 10 9 8 7 8 8 8 8 9 11 13 14 14 14 14 14 14 13 12 11 11 12 14 15 15 14 14 14 15 15 16 15 17 19 22 23 25 27 26 28 29
9 9 8 8 7 7 8 7 6 8 9 11 12 13 14 14 14 15 15 15 14 14 12 12 13 14 14 14 14 14 15 15 15 15 16 18 21 24 24 26 26 27 27
Wind_Direction
274 251 245 236 234 232 229 229 230 226 226 225 227 229 226 227 223 222 224 225 224 223 223 225 227 229 226 224 224 225 224 227 228 216 218 216 210 219 228 223 221 223 228
305 262 250 247 241 236 230 227 228 229 233 233 232 237 234 232 227 221 221 222 221 221 223 222 224 226 226 224 223 228 230 237 228 217 205 209 213 224 228 221 221 220 224
296 282 257 248 240 237 237 232 228 230 229 234 230 225 229 224 236 227 223 225 223 224 225 224 225 223 222 223 228 232 240 233 218 225 214 204 209 212 216 221 221 216 215
303 273 259 259 254 247 237 235 231 229 235 233 227 228 223 225 227 228 221 224 226 226 226 226 227 227 229 226 227 231 233 221 214 216 209 210 210 211 214 216 214 213 212
296 278 262 253 246 240 242 245 235 240 233 227 224 217 226 223 223 223 226 227 226 226 226 227 232 231 233 232 230 229 225 217 219 214 212 206 206 208 210 212 216 209 212
296 273 261 252 247 241 236 231 229 229 224 224 215 219 222 223 222 222 222 221 224 224 226 226 227 231 233 235 241 239 236 229 219 218 214 214 209 208 210 215 212 204 202
261 264 262 253 249 252 245 229 225 220 220 221 221 216 217 211 210 205 207 210 213 215 217 220 223 228 233 235 231 235 236 236 247 234 221 219 212 211 208 218 216 212 216
246 236 231 234 250 252 246 238 229 225 217 205 206 206 204 206 193 192 185 191 195 200 209 215 220 228 230 224 219 223 232 228 228 243 238 233 220 215 227 242 225 213 219
206 190 181 172 161 186 205 198 202 196 198 204 189 204 193 191 187 186 177 177 183 194 203 211 217 224 227 229 226 227 221 229 230 224 220 229 220 224 242 232 214 211 212
193 174 160 157 155 162 159 156 160 170 164 163 153 163 175 178 165 174 171 176 183 193 199 205 208 219 221 230 228 229 226 216 207 209 215 220 226 234 229 221 226 215 212
168 158 142 138 144 149 147 148 139 135 138 146 157 157 167 167 166 177 178 186 194 200 208 201 207 216 222 231 232 229 227 229 208 217 215 218 227 226 217 216 223 231 221
173 191 167 165 166 161 157 156 150 151 154 161 157 162 166 166 170 174 177 180 190 201 203 207 205 214 208 213 217 224 222 215 218 226 227 236 233 217 214 215 215 215 219
187 185 174 165 162 165 173 174 167 162 167 167 167 174 173 178 186 188 194 190 188 192 193 196 215 224 229 228 216 220 221 223 228 234 234 241 224 217 211 210 209 211 214
172 169 162 153 145 142 151 159 174 176 174 176 179 184 186 192 196 200 203 201 200 197 198 204 212 221 229 231 229 228 235 242 246 246 242 231 221 216 210 209 207 207 208
172 166 162 154 149 147 155 151 166 157 166 171 177 188 193 194 193 199 206 208 209 208 206 207 212 214 215 220 226 231 236 238 237 232 228 225 220 216 213 209 209 207 212
166 163 160 158 158 166 172 156 154 163 157 153 157 167 170 175 180 188 206 208 211 217 217 223 228 227 230 231 230 231 231 232 235 232 229 226 219 216 213 210 212 212 208
163 157 159 160 162 163 169 169 166 162 160 163 168 185 198 201 205 218 226 232 237 226 227 228 232 235 237 238 236 236 237 235 234 234 231 225 219 217 214 211 210 210 210
152 155 167 171 171 166 151 157 159 144 148 161 177 188 192 190 188 206 223 232 229 230 232 236 235 234 236 240 239 237 238 238 238 234 230 225 220 218 213 212 211 208 208
156 156 151 144 137 136 138 140 144 153 164 175 174 176 168 164 167 183 199 213 221 225 227 231 229 228 237 238 238 240 243 246 244 238 233 227 222 221 217 217 214 213 213
135 137 139 138 134 137 137 141 146 153 156 150 144 148 163 179 189 203 217 220 226 234 233 233 226 227 230 236 237 240 244 246 245 241 236 230 223 219 219 219 219 216 215
136 138 141 141 140 139 141 146 146 138 125 118 125 143 179 218 223 232 233 234 232 231 232 233 230 228 233 238 239 239 240 245 248 243 238 233 228 224 224 225 226 225 218
135 135 133 133 132 130 124 122 106 107 119 125 162 235 245 253 246 242 245 249 246 250 247 237 230 233 236 239 242 242 242 242 244 243 241 239 235 229 230 230 228 223 219
131 133 135 136 134 139 141 158 166 193 220 231 247 265 275 280 279 279 287 277 263 252 246 243 232 227 233 233 235 236 242 243 242 241 240 238 236 233 232 229 226 221 216
153 154 157 158 166 167 184 201 209 225 237 251 259 263 268 276 279 277 276 274 273 266 252 240 234 228 229 235 233 231 231 235 238 240 240 239 237 233 230 228 226 221 213
168 173 177 187 194 201 217 228 238 253 260 261 261 260 260 261 261 265 269 269 267 266 264 248 237 231 229 232 234 230 228 228 231 229 232 236 239 237 233 228 223 216 212
159 167 176 188 193 213 228 242 252 267 278 277 277 280 280 280 277 270 263 262 262 261 262 258 246 234 230 228 229 227 224 223 222 221 222 228 232 234 233 228 223 217 215
Height
1330 1333 1336 1338 1341 1345 1348 1352 1355 1357 1361 1368 1374 1385 1391 1392 1395 1402 1407 1416 1424 1432 1439 1446 1452 1460 1469 1478 1485 1489 1493 1499 1507 1510 1518 1525 1533 1537 1540 1543 1545 1550 1553
1327 1329 1328 1331 1334 1336 1339 1339 1343 1348 1353 1361 1366 1372 1379 1385 1379 1387 1397 1404 1412 1419 1426 1434 1441 1451 1461 1471 1475 1484 1486 1491 1502 1507 1511 1517 1525 1530 1534 1537 1540 1544 1549
1324 1325 1324 1324 1326 1326 1329 1331 1334 1337 1342 1350 1356 1360 1366 1372 1374 1379 1387 1397 1402 1409 1418 1427 1436 1441 1451 1458 1464 1472 1478 1482 1492 1496 1499 1508 1515 1520 1526 1531 1534 1540 1543
1317 1322 1321 1320 1322 1321 1322 1325 1327 1331 1337 1343 1346 1354 1362 1367 1371 1376 1380 1391 1397 1401 1411 1416 1428 1432 1441 1448 1454 1462 1467 1473 1481 1486 1493 1499 1505 1511 1517 1521 1528 1533 1538
1314 1316 1316 1314 1317 1317 1317 1320 1323 1326 1331 1334 1340 1346 1353 1359 1365 1372 1378 1386 1392 1397 1407 1414 1420 1429 1435 1441 1446 1451 1458 1466 1471 1478 1485 1490 1495 1501 1505 1511 1519 1527 1532
1308 1310 1313 1310 1312 1312 1312 1315 1316 1319 1322 1327 1331 1337 1345 1347 1358 1364 1374 1381 1388 1395 1402 1408 1414 1423 1430 1435 1440 1445 1451 1457 1464 1469 1475 1481 1486 1491 1499 1504 1510 1517 1524
1308 1309 1311 1311 1311 1307 1310 1311 1314 1316 1319 1321 1326 1333 1340 1344 1354 1358 1368 1376 1385 1393 1398 1403 1410 1416 1422 1427 1434 1441 1448 1452 1458 1461 1466 1472 1479 1484 1491 1497 1502 1508 1512
1307 1305 1305 1306 1305 1303 1308 1310 1313 1316 1318 1317 1327 1332 1341 1345 1349 1356 1363 1372 1380 1388 1395 1401 1407 1413 1417 1422 1429 1435 1442 1447 1454 1458 1461 1468 1475 1481 1486 1492 1495 1503 1509
1303 1301 1298 1300 1302 1306 1310 1310 1313 1314 1320 1324 1326 1337 1341 1345 1352 1358 1363 1369 1377 1385 1393 1400 1405 1410 1416 1420 1425 1432 1437 1441 1451 1456 1459 1466 1472 1479 1479 1484 1487 1491 1501
1301 1300 1299 1299 1302 1310 1314 1314 1315 1319 1320 1324 1326 1337 1343 1349 1355 1361 1364 1370 1377 1384 1390 1396 1401 1409 1414 1418 1420 1428 1433 1436 1443 1451 1455 1459 1467 1471 1472 1476 1481 1484 1488
1300 1302 1299 1303 1307 1312 1314 1319 1319 1320 1324 1328 1335 1341 1346 1350 1355 1362 1366 1372 1377 1383 1389 1390 1397 1406 1410 1415 1421 1425 1430 1435 1440 1446 1449 1452 1459 1464 1468 1470 1475 1480 1483
1297 1303 1302 1306 1310 1314 1316 1321 1322 1326 1330 1337 1338 1345 1350 1352 1356 1361 1363 1366 1374 1380 1386 1393 1397 1400 1403 1410 1420 1423 1427 1433 1437 1440 1445 1446 1450 1456 1461 1465 1472 1475 1479
1295 1301 1303 1306 1308 1313 1318 1320 1325 1327 1333 1338 1340 1347 1350 1353 1356 1360 1363 1366 1370 1378 1384 1388 1397 1400 1402 1406 1412 1422 1428 1430 1431 1436 1437 1441 1444 1448 1454 1461 1466 1471 1477
1294 1300 1305 1306 1308 1312 1319 1323 1327 1331 1332 1334 1339 1344 1347 1352 1357 1359 1364 1368 1371 1374 1378 1382 1390 1394 1399 1404 1408 1413 1421 1425 1427 1426 1430 1434 1439 1444 1447 1454 1456 1463 1469
1293 1298 1305 1307 1309 1313 1322 1326 1330 1330 1333 1334 1339 1344 1348 1352 1355 1359 1364 1368 1373 1375 1378 1379 1385 1388 1391 1396 1399 1405 1411 1417 1420 1419 1422 1427 1432 1437 1442 1446 1451 1457 1460
1290 1297 1302 1307 1310 1318 1323 1326 1331 1333 1333 1335 1340 1347 1348 1350 1351 1355 1364 1367 1371 1375 1374 1375 1381 1382 1387 1390 1394 1400 1403 1407 1414 1417 1418 1421 1423 1430 1436 1440 1444 1449 1455
1291 1297 1304 1308 1313 1317 1322 1324 1330 1334 1333 1336 1338 1345 1351 1351 1351 1355 1360 1364 1369 1371 1369 1373 1377 1378 1381 1386 1389 1394 1398 1402 1406 1411 1414 1416 1419 1423 1427 1433 1439 1443 1448
1295 1302 1307 1312 1316 1318 1318 1326 1331 1329 1333 1338 1344 1349 1352 1351 1347 1352 1355 1359 1366 1369 1367 1370 1373 1375 1377 1381 1386 1388 1392 1398 1401 1404 1408 1410 1412 1418 1423 1427 1431 1437 1441
1297 1303 1307 1310 1311 1316 1321 1326 1330 1334 1339 1344 1347 1349 1346 1345 1347 1352 1357 1363 1366 1368 1366 1366 1369 1372 1375 1378 1381 1384 1389 1391 1393 1397 1402 1404 1407 1412 1416 1421 1426 1431 1435
1298 1303 1307 1312 1316 1322 1326 1331 1335 1337 1339 1340 1340 1340 1343 1347 1352 1357 1362 1364 1363 1362 1364 1366 1369 1371 1372 1375 1377 1379 1381 1384 1388 1391 1395 1398 1401 1406 1410 1415 1420 1424 1429
1304 1308 1313 1317 1321 1325 1328 1331 1335 1337 1339 1340 1344 1347 1350 1352 1355 1357 1359 1361 1361 1361 1362 1363 1364 1367 1368 1369 1372 1374 1377 1379 1383 1386 1389 1392 1396 1400 1405 1410 1414 1419 1424
1309 1313 1318 1323 1326 1329 1333 1336 1338 1341 1342 1345 1348 1350 1352 1354 1354 1355 1356 1356 1357 1357 1358 1358 1360 1362 1364 1366 1368 1370 1372 1374 1377 1381 1384 1387 1390 1395 1399 1403 1408 1413 1418
1315 1319 1323 1326 1330 1333 1336 1339 1341 1344 1346 1347 1347 1349 1350 1351 1352 1351 1351 1352 1353 1353 1353 1354 1355 1357 1360 1362 1364 1365 1368 1370 1372 1375 1378 1381 1385 1390 1394 1398 1402 1408 1413
1320 1323 1326 1328 1331 1334 1337 1340 1341 1343 1343 1344 1344 1344 1346 1347 1348 1348 1349 1350 1350 1351 1350 1351 1352 1353 1356 1358 1358 1360 1362 1365 1367 1370 1373 1377 1381 1385 1389 1393 1397 1403 1408
1321 1324 1326 1328 1330 1332 1335 1337 1339 1339 1339 1340 1340 1341 1343 1344 1344 1345 1345 1347 1346 1347 1346 1347 1348 1349 1350 1352 1353 1354 1357 1360 1362 1365 1368 1372 1376 1381 1385 1389 1393 1398 1403
1320 1323 1324 1326 1328 1332 1334 1335 1332 1334 1335 1337 1339 1339 1339 1339 1339 1340 1340 1341 1341 1342 1342 1343 1343 1343 1345 1346 1348 1350 1352 1355 1358 1361 1364 1367 1372 1376 1380 1385 1389 1394 1398